Alexandria, LA

1:46 AM CST on February 23, 2017 (GMT -0600)
Alexandria International

Weather History for KAEX - November, 2011

Change the Weather History Date:

Wednesday, November 23, 2011

  Actual Average Record
Temperature  
Mean Temperature 58 °F 55 °F  
Max Temperature 69 °F 66 °F 86 °F (1900)
Min Temperature 47 °F 44 °F 28 °F (1975)
Degree Days  
Heating Degree Days 7 11  
Month to date heating degree days 136 170  
Since 1 July heating degree days 240 243  
Growing Degree Days 10 (Base 50)    
Moisture  
Dew Point 49 °F    
Average Humidity 68    
Maximum Humidity 89    
Minimum Humidity 47    
Precipitation  
Precipitation 0.00 in 0.23 in 3.79 in (1940)
Month to date precipitation 1.98 3.76  
Year to date precipitation 28.41 48.07  
Snow  
Snow 0.00 in - 0.00 in ()
Month to date snowfall 0.0  
Since 1 July snowfall 0.0  
Since 1 September snowfall 0.0  
Snow Depth 0.00 in    
Sea Level Pressure  
Sea Level Pressure 30.23 in    
Wind  
Wind Speed 6 mph (North)    
Max Wind Speed 14 mph    
Max Gust Speed 20 mph    
Visibility 10 miles    
Events      
T = Trace of Precipitation, MM = Missing Value Source: NWS Daily Summary

Daily Weather History Graph

Daily Weather History Graph

Search for Another Location

Airport or City:

Trip Planner

Search our weather history database for the weather conditions in past years. The results will help you decide how hot, cold, wet, or windy it might be!

Date:

Astronomy

Nov. 23, 2011 Rise Set
Actual Time 6:44 AM CST 5:08 PM CST
Civil Twilight 6:18 AM CST 5:34 PM CST
Nautical Twilight 5:48 AM CST 6:04 PM CST
Astronomical Twilight 5:19 AM CST 6:33 PM CST
Moon 4:52 AM CST 3:49 PM CST
Length of Visible Light 11h 16m
Length of Day
10h 24m
Waning Crescent, 3% of the Moon is Illuminated
Nov 23
Waning Crescent
Nov 25
New
Dec 2
First Quarter
Dec 10
Full
Dec 17
Last Quarter

Hourly Weather History & Observations

Time (CST) Temp. Dew Point Humidity Pressure Visibility Wind Dir Wind Speed Gust Speed Precip Events Conditions
12:21 AM 55.4 °F 51.8 °F 88% 30.15 in 10.0 mi NNW 8.1 mph - N/A   Overcast
12:49 AM 55.4 °F 51.8 °F 88% 30.15 in 10.0 mi NNW 9.2 mph - N/A   Overcast
12:53 AM 55.0 °F 51.1 °F 86% 30.16 in 10.0 mi NNW 6.9 mph - N/A   Overcast
1:53 AM 54.0 °F 50.0 °F 86% 30.17 in 10.0 mi NNW 9.2 mph - N/A   Overcast
2:53 AM 53.1 °F 48.9 °F 86% 30.17 in 10.0 mi NNW 10.4 mph - N/A   Overcast
3:33 AM 51.8 °F 48.2 °F 88% 30.17 in 10.0 mi NNW 12.7 mph - N/A   Overcast
3:53 AM 52.0 °F 48.9 °F 89% 30.18 in 9.0 mi NNW 10.4 mph - N/A   Overcast
4:53 AM 52.0 °F 48.9 °F 89% 30.19 in 9.0 mi NNW 8.1 mph - N/A   Overcast
5:53 AM 51.8 °F 48.2 °F 88% 30.21 in 10.0 mi North 6.9 mph 16.1 mph N/A   Overcast
6:53 AM 52.0 °F 48.0 °F 86% 30.24 in 10.0 mi North 5.8 mph - N/A   Overcast
7:53 AM 53.1 °F 48.9 °F 86% 30.26 in 10.0 mi North 5.8 mph - N/A   Overcast
8:00 AM 53.6 °F 48.2 °F 82% 30.24 in 10.0 mi Variable 5.8 mph - N/A   Overcast
8:53 AM 55.9 °F 48.9 °F 77% 30.27 in 10.0 mi North 6.9 mph - N/A   Mostly Cloudy
9:15 AM 57.2 °F 48.2 °F 72% 30.26 in 10.0 mi NNE 8.1 mph - N/A   Partly Cloudy
9:53 AM 59.0 °F 48.9 °F 69% 30.27 in 10.0 mi NNE 5.8 mph - N/A   Partly Cloudy
10:53 AM 61.0 °F 48.9 °F 64% 30.26 in 10.0 mi Calm Calm - N/A   Clear
11:53 AM 64.0 °F 48.9 °F 58% 30.23 in 10.0 mi NW 6.9 mph - N/A   Clear
12:53 PM 66.9 °F 48.9 °F 52% 30.21 in 10.0 mi North 4.6 mph - N/A   Clear
1:53 PM 69.1 °F 48.9 °F 49% 30.19 in 10.0 mi NNW 4.6 mph - N/A   Clear
2:53 PM 69.1 °F 48.9 °F 49% 30.19 in 10.0 mi NNE 5.8 mph - N/A   Clear
3:53 PM 68.0 °F 48.9 °F 50% 30.20 in 10.0 mi North 4.6 mph - N/A   Clear
4:53 PM 64.9 °F 48.9 °F 56% 30.21 in 10.0 mi NNE 4.6 mph - N/A   Clear
5:53 PM 60.1 °F 50.0 °F 69% 30.23 in 10.0 mi NNE 5.8 mph - N/A   Clear
6:53 PM 55.9 °F 50.0 °F 80% 30.25 in 10.0 mi NE 6.9 mph - N/A   Clear
7:53 PM 53.1 °F 48.0 °F 83% 30.29 in 10.0 mi NE 8.1 mph - N/A   Clear
8:53 PM 51.8 °F 48.2 °F 88% 30.28 in 9.0 mi NE 10.4 mph - N/A   Clear
9:53 PM 50.0 °F 46.9 °F 89% 30.30 in 9.0 mi NE 8.1 mph - N/A   Clear
10:53 PM 50.0 °F 46.9 °F 89% 30.30 in 9.0 mi North 3.5 mph - N/A   Clear
11:53 PM 48.9 °F 46.0 °F 90% 30.30 in 8.0 mi Calm Calm - N/A   Clear